When you browse on this site, cookies collect data to enhance your experience and personalize the content and advertising you see.
Visit our Privacy Policy to learn more. By continuing to use the site, you agree to this use of cookies and data.
  • In France
  • List of Countries
  • For 7 days
  • Water Temperature
  • Weather Map
  • Weather Widgets
  • user-avatar
    Login

    Hourly Weather Jewłach

    Today, 27 May, Wednesday

    Time Temperature Precipitation Wind Pressure Humidity
    00:00 +19°C° 0 mm 3 mps 765 mmHg 57%
    01:00 +18°C° 0 mm 3 mps 765 mmHg 58%
    02:00 +18°C° 0 mm 2 mps 765 mmHg 60%
    03:00 +17°C° 0 mm 2 mps 765 mmHg 62%
    04:00 +18°C° 0 mm 2 mps 765 mmHg 60%
    05:00 +19°C° 0 mm 2 mps 766 mmHg 58%
    06:00 +20°C° 0 mm 1 mps 766 mmHg 56%
    07:00 +21°C° 0 mm 2 mps 766 mmHg 51%
    08:00 +24°C° 0 mm 2 mps 765 mmHg 46%
    09:00 +26°C° 0 mm 3 mps 765 mmHg 40%
    10:00 +27°C° 0 mm 3 mps 765 mmHg 37%
    11:00 +29°C° 0 mm 3 mps 765 mmHg 34%
    12:00 +30°C° 0 mm 3 mps 764 mmHg 32%
    13:00 +31°C° 0 mm 3 mps 764 mmHg 30%
    14:00 +31°C° 0 mm 3 mps 763 mmHg 29%
    15:00 +33°C° 0 mm 3 mps 763 mmHg 27%
    16:00 +32°C° 0 mm 2 mps 763 mmHg 29%
    17:00 +31°C° 0 mm 2 mps 763 mmHg 30%
    18:00 +31°C° 0 mm 2 mps 763 mmHg 31%
    19:00 +29°C° 0 mm 1 mps 763 mmHg 35%
    20:00 +27°C° 0 mm 1 mps 763 mmHg 40%
    21:00 +25°C° 0 mm 1 mps 763 mmHg 44%
    22:00 +24°C° 0 mm 2 mps 763 mmHg 48%
    23:00 +23°C° 0 mm 2 mps 763 mmHg 52%

    Tomorrow, 28 May, Thursday

    Time Temperature Precipitation Wind Pressure Humidity
    00:00 +21°C° 0 mm 3 mps 762 mmHg 56%
    01:00 +20°C° 0 mm 2 mps 762 mmHg 58%
    02:00 +21°C° 0 mm 1 mps 762 mmHg 60%
    03:00 +18°C° 0 mm 0 mps 762 mmHg 61%
    04:00 +19°C° 0 mm 0 mps 762 mmHg 59%
    05:00 +20°C° 0 mm 0 mps 762 mmHg 56%
    06:00 +20°C° 0 mm 0 mps 762 mmHg 54%
    07:00 +24°C° 0 mm 1 mps 761 mmHg 49%
    08:00 +26°C° 0 mm 1 mps 761 mmHg 45%
    09:00 +28°C° 0 mm 1 mps 761 mmHg 40%
    10:00 +29°C° 0 mm 1 mps 760 mmHg 37%
    11:00 +31°C° 0 mm 2 mps 760 mmHg 33%
    12:00 +32°C° 0 mm 2 mps 759 mmHg 30%
    13:00 +34°C° 0 mm 2 mps 759 mmHg 29%
    14:00 +35°C° 0 mm 2 mps 758 mmHg 28%
    15:00 +36°C° 0 mm 3 mps 758 mmHg 27%
    16:00 +35°C° 0 mm 3 mps 758 mmHg 28%
    17:00 +35°C° 0 mm 3 mps 758 mmHg 29%
    18:00 +34°C° 0 mm 3 mps 758 mmHg 30%
    19:00 +31°C° 0 mm 3 mps 758 mmHg 35%
    20:00 +29°C° 0 mm 4 mps 758 mmHg 41%
    21:00 +26°C° 0 mm 4 mps 759 mmHg 47%
    22:00 +25°C° 0 mm 3 mps 758 mmHg 48%
    23:00 +24°C° 0 mm 3 mps 758 mmHg 50%

    Day after tomorrow, 29 May, Friday

    Time Temperature Precipitation Wind Pressure Humidity
    00:00 +23°C° 0 mm 2 mps 758 mmHg 51%
    01:00 +22°C° 0 mm 1 mps 758 mmHg 54%
    02:00 +22°C° 0 mm 1 mps 757 mmHg 56%
    03:00 +19°C° 0 mm 0 mps 757 mmHg 58%
    04:00 +20°C° 0 mm 0 mps 757 mmHg 56%
    05:00 +21°C° 0 mm 0 mps 757 mmHg 54%
    06:00 +21°C° 0 mm 0 mps 757 mmHg 52%
    07:00 +25°C° 0 mm 1 mps 757 mmHg 47%
    08:00 +27°C° 0 mm 1 mps 756 mmHg 42%
    09:00 +29°C° 0 mm 1 mps 756 mmHg 37%
    10:00 +31°C° 0 mm 2 mps 755 mmHg 33%
    11:00 +34°C° 0 mm 3 mps 755 mmHg 30%
    12:00 +36°C° 0 mm 4 mps 754 mmHg 26%
    13:00 +37°C° 0.1 mm 4 mps 754 mmHg 25%
    14:00 +37°C° 0.1 mm 5 mps 753 mmHg 24%
    15:00 +39°C° 0.1 mm 5 mps 752 mmHg 24%
    16:00 +38°C° 0.1 mm 6 mps 752 mmHg 26%
    17:00 +36°C° 0.1 mm 6 mps 752 mmHg 29%
    18:00 +35°C° 0.1 mm 7 mps 752 mmHg 31%
    19:00 +33°C° 0.1 mm 5 mps 752 mmHg 40%
    20:00 +29°C° 0.1 mm 4 mps 753 mmHg 49%
    21:00 +26°C° 0.1 mm 3 mps 753 mmHg 58%
    22:00 +26°C° 0 mm 3 mps 753 mmHg 60%
    23:00 +25°C° 0 mm 2 mps 753 mmHg 62%

    30 May, Saturday

    Time Temperature Precipitation Wind Pressure Humidity
    00:00 +24°C° 0 mm 2 mps 753 mmHg 64%
    01:00 +23°C° 0 mm 4 mps 753 mmHg 65%
    02:00 +23°C° 0 mm 5 mps 753 mmHg 66%
    03:00 +22°C° 0 mm 7 mps 753 mmHg 67%
    04:00 +22°C° 0 mm 8 mps 754 mmHg 64%
    05:00 +23°C° 0 mm 9 mps 754 mmHg 62%
    06:00 +23°C° 0 mm 10 mps 755 mmHg 59%
    07:00 +26°C° 0 mm 11 mps 755 mmHg 52%
    08:00 +28°C° 0 mm 11 mps 755 mmHg 45%
    09:00 +29°C° 0 mm 12 mps 755 mmHg 39%
    10:00 +32°C° 0 mm 11 mps 755 mmHg 33%
    11:00 +34°C° 0 mm 11 mps 755 mmHg 27%
    12:00 +37°C° 0 mm 11 mps 755 mmHg 21%
    13:00 +37°C° 0 mm 10 mps 755 mmHg 21%
    14:00 +37°C° 0 mm 10 mps 755 mmHg 20%
    15:00 +38°C° 0 mm 9 mps 755 mmHg 19%
    16:00 +37°C° 0 mm 9 mps 755 mmHg 22%
    17:00 +34°C° 0 mm 9 mps 756 mmHg 25%
    18:00 +33°C° 0 mm 8 mps 756 mmHg 27%
    19:00 +30°C° 0 mm 7 mps 757 mmHg 33%
    20:00 +28°C° 0 mm 6 mps 757 mmHg 38%
    21:00 +26°C° 0 mm 5 mps 758 mmHg 43%
    22:00 +25°C° 0 mm 4 mps 758 mmHg 49%
    23:00 +24°C° 0 mm 3 mps 759 mmHg 56%

    31 May, Sunday

    Time Temperature Precipitation Wind Pressure Humidity
    00:00 +23°C° 0 mm 2 mps 759 mmHg 62%
    01:00 +21°C° 0 mm 2 mps 759 mmHg 64%
    02:00 +21°C° 0 mm 2 mps 759 mmHg 65%
    03:00 +20°C° 0 mm 2 mps 759 mmHg 67%
    04:00 +21°C° 0 mm 2 mps 760 mmHg 64%
    05:00 +23°C° 0 mm 2 mps 760 mmHg 61%
    06:00 +23°C° 0 mm 2 mps 761 mmHg 57%
    07:00 +25°C° 0 mm 2 mps 761 mmHg 53%
    08:00 +26°C° 0 mm 2 mps 760 mmHg 49%
    09:00 +28°C° 0 mm 2 mps 760 mmHg 44%
    10:00 +29°C° 0 mm 3 mps 760 mmHg 42%
    11:00 +30°C° 0 mm 3 mps 760 mmHg 39%
    12:00 +31°C° 0 mm 3 mps 760 mmHg 37%
    13:00 +33°C° 0 mm 3 mps 760 mmHg 35%
    14:00 +34°C° 0 mm 3 mps 759 mmHg 34%
    15:00 +34°C° 0 mm 3 mps 759 mmHg 32%
    16:00 +34°C° 0 mm 3 mps 759 mmHg 33%
    17:00 +33°C° 0 mm 4 mps 759 mmHg 34%
    18:00 +33°C° 0 mm 4 mps 759 mmHg 35%
    19:00 +29°C° 0 mm 4 mps 760 mmHg 40%
    20:00 +27°C° 0 mm 5 mps 760 mmHg 45%
    21:00 +25°C° 0 mm 5 mps 761 mmHg 50%
    22:00 +23°C° 0 mm 4 mps 761 mmHg 51%
    23:00 +22°C° 0 mm 4 mps 761 mmHg 52%

    1 June, Monday

    Time Temperature Precipitation Wind Pressure Humidity
    00:00 +21°C° 0 mm 3 mps 761 mmHg 53%
    01:00 +21°C° 0 mm 3 mps 761 mmHg 54%
    02:00 +20°C° 0 mm 2 mps 761 mmHg 55%
    03:00 +20°C° 0 mm 2 mps 760 mmHg 55%
    04:00 +20°C° 0 mm 2 mps 760 mmHg 53%
    05:00 +21°C° 0 mm 2 mps 760 mmHg 52%
    06:00 +21°C° 0 mm 2 mps 760 mmHg 50%
    07:00 +24°C° 0 mm 2 mps 760 mmHg 45%
    08:00 +26°C° 0 mm 3 mps 759 mmHg 39%
    09:00 +28°C° 0 mm 3 mps 759 mmHg 34%
    10:00 +29°C° 0 mm 3 mps 759 mmHg 33%
    11:00 +30°C° 0 mm 3 mps 758 mmHg 31%
    12:00 +31°C° 0 mm 3 mps 758 mmHg 30%
    13:00 +33°C° 0 mm 3 mps 757 mmHg 29%
    14:00 +34°C° 0 mm 2 mps 756 mmHg 28%
    15:00 +35°C° 0 mm 2 mps 756 mmHg 27%
    16:00 +34°C° 0 mm 2 mps 755 mmHg 28%
    17:00 +34°C° 0 mm 2 mps 755 mmHg 28%
    18:00 +34°C° 0 mm 2 mps 755 mmHg 29%
    19:00 +31°C° 0 mm 3 mps 755 mmHg 34%
    20:00 +28°C° 0 mm 3 mps 756 mmHg 40%
    21:00 +26°C° 0 mm 4 mps 756 mmHg 45%
    22:00 +25°C° 0 mm 3 mps 756 mmHg 47%
    23:00 +24°C° 0 mm 3 mps 756 mmHg 50%
    Show more